User: anonymous   Login
Location: Unspecified
(0.0000°N, 0.0000°E)
Time: 10:45:29
(UTC+00:00)
Language:

FALCONSAT 3 - Orbit

View from above orbital plane
View from above orbital plane
View from above satellite
View from above satellite

Ground track
Ground track

The orbit data is extracted from the following two-line orbital elements,

1 30776U 07006E   21339.69589130  .00009971  00000-0  21843-3 0  9992
2 30776  35.4345  77.9243 0002027  36.9935 323.0933 15.43345481819556
Epoch (UTC): 05 December 2021 16:42:05
Eccentricity: 0.0002027
inclination: 35.4345°
perigee height: 435 km
apogee height: 437 km
right ascension of ascending node: 77.9243°
argument of perigee: 36.9935°
revolutions per day: 15.43345481
mean anomaly at epoch: 323.0933°
orbit number at epoch: 81955

The dashed part of the orbit path shows where the satellite is in the earth's shadow,  

DLR